FENGYUN 1C DEB

Satellite information

Favourite Embed

Satellite Type and Status

DEBRISIN ORBIT

Key statistics

Satellite FENGYUN 1C DEB at a glance.

Uptime

9715

Days in orbit

Revolutions

≈ 14.2

Per day

Orbit

SSO

Sun Synchronous Orbit

Inclination

98.7

Latest

Satellite identification and parameters

Extended collection of information and parameters for FENGYUN 1C DEB.

Object identification

Identified? True

Debris? True

Object name: FENGYUN 1C DEB

International designator: 1999-025CLH

Object number (NORAD): 31906

Object ID (CCSDS): 31906

Country: PEOPLES REPUBLIC OF CHINA (PRC)

Current information (Y/N): Y

RCS size: SMALL

Orbital parameters

Period: 101.077 minutes

Inclination: 98.6915 deg

SMA: 7187.777 km

Apoapsis: 846.878 km

Periapsis: 772.406 km

RAAN: 120.7471 deg

Eccentricy: 0.00518044

Argument of periapsis: 121.7338 deg

Mean anomaly: 257.6192 deg

Mean motion: 14.24658752 rev/day

Mean motion (dot): 0.00006982 rev/day2

B* drag term: 0.0029769204 1/REarth

Two-line elements (TLE)

Creation date: Dec. 14, 2025, 3:07 a.m.

Reference frame: TEME

Reference center: EARTH

Epoch: Dec. 13, 2025, 3:20 p.m. UTC

TLE line 0: 0 FENGYUN 1C DEB

TLE line 1: 1 31906U 99025CLH 25347.63949789 .00006982 00000-0 29769-2 0 9990

TLE line 2: 2 31906 98.6915 120.7471 0051804 121.7338 257.6192 14.24658752951421

Live tracking on map

Real-time ground track for satellite FENGYUN 1C DEB.

In-orbit conjunctions

A list of the most updated potential collisions computed for object FENGYUN 1C DEB.

Target Orbit TCA Probability of collision Miss distance Type
CZ-4B R/B SSO 2024-11-12 20:12:49 0.0001329568 542.0 (m) ROCKET BODY
METEOR 1-22 DEB LEO 2024-11-10 03:55:13 0.0001036785 314.0 (m) DEBRIS

Associated space launch

Chinese polar orbiting meteorological satellite

FENGYUN 1C DEB was lifted into orbit during the mission ‘Long March 4B | Feng Yun 1C’, on board a Long March 4B space rocket.

The launch took place on May 10, 1999, 1:33 a.m. from Launch Complex 7.

For more information about the launch, click the button.

Launch to space Long March 4B | Feng Yun 1C
Long March 4B | Feng Yun 1C

Agency: N/A

Status: Launch Successful

Launch date: May 10, 1999, 1:33 a.m. UTC

Rocket: Long March 4B

Launch pad: Launch Complex 7

Location: Taiyuan Satellite Launch Center, People's Republic of China

...

Latest news about this satellite

There are no fresh news available about this satellite. Check back as we update our databases every day.


Newsletter sign-up

Weekly statistics, charts and insights to help you stay on top of the space industry.